"Pseudo-MPEC" for C0MVNR2

Created 2019 May 21 8:07:11 UT using Find_Orb

Click here for an explanation of pseudo-MPECs

 
 Astrometry: 
     C0MVNR2  C2019 05 15.36064 16 42 12.99 -07 25 38.5    ~5F9b 19.8 GVNEOCPG96
     C0MVNR2  C2019 05 15.36735 16 42 09.26 -07 25 10.8    ~5F9b 19.9 GVNEOCPG96
     C0MVNR2  C2019 05 15.37857 16 42 03.06 -07 24 24.1    ~5F9b 20.2 GVNEOCPG96
     C0MVNR2  C2019 05 15.39167216 41 55.58 -07 23 31.2    ~5FA7 20.8 GVNEOCPH01
     C0MVNR2  C2019 05 15.39800816 41 52.08 -07 23 04.7    ~5FA7 19.8 GVNEOCPH01
     C0MVNR2  C2019 05 15.40624816 41 47.54 -07 22 30.2    ~5FA7 20.2 GVNEOCPH01
     C0MVNR2  C2019 05 15.41276416 41 43.93 -07 22 03.0    ~5FA7 20.3 GVNEOCPH01
     C0MVNR2  C2019 05 15.44436 16 41 26.66 -07 19 48.8    ~5FB7 20.3 GVNEOCPI52
     C0MVNR2  C2019 05 15.44512 16 41 26.25 -07 19 45.6    ~5FB7 20.4 GVNEOCPI52
     C0MVNR2  C2019 05 15.44589 16 41 25.83 -07 19 42.6    ~5FB7 19.7 GVNEOCPI52
     C0MVNR2  C2019 05 15.44665 16 41 25.43 -07 19 39.0    ~5FB7 20.1 GVNEOCPI52
     C0MVNR2  C2019 05 16.37074 16 32 44.10 -06 10 21.3    ~5GBM       VNEOCPG96
     C0MVNR2  C2019 05 16.37114 16 32 43.71 -06 10 17.0    ~5GBM 19.6 GVNEOCPG96
     C0MVNR2  C2019 05 16.37155 16 32 43.46 -06 10 16.7    ~5GBM 19.6 GVNEOCPG96
     C0MVNR2  C2019 05 16.37195 16 32 43.10 -06 10 14.7    ~5GBM       VNEOCPG96
     C0MVNR2 KC2019 05 16yn!lU[X_DAstrometryu!1c62%dS3bXJ*r\JYenTbUredacted;dL01
     C0MVNR2 KC2019 05 16=kwiruj]^p=DI*`[UDT7IclickgV=ANhere%Q9wvjyebN/F2iO3?L01
     C0MVNR2 KC2019 05 16ZN!foriL/Zuvj8rr#1oy!HddwsdcbZ9OSMW.explanationp*=PYL01
     C0MVNR2  C2019 05 17.29796 16 22 41.49 -04 49 56.3    ~5H7b       VNEOCPG96
     C0MVNR2  C2019 05 17.29837 16 22 41.20 -04 49 54.6    ~5H7b       VNEOCPG96
     C0MVNR2  C2019 05 17.29877 16 22 40.92 -04 49 52.6    ~5H7b 20.2 GVNEOCPG96
     C0MVNR2  C2019 05 17.29918 16 22 40.65 -04 49 50.8    ~5H7b       VNEOCPG96

Station data:
(G96) Mt. Lemmon Survey  (N32.442754 W110.788720)  US/Arizona.  Observers T.
   A. Pruyne, B. M. Africano, E. J. Christensen, G. A. Farneth, D. C. Fuls,
   A. R. Gibbs, A. D. Grauer, H. Groeller, J. A. Johnson, R. A. Kowalski, S.
   M. Larson, G. J. Leonard, R. L. Seaman, F. C. Shelly. 1.5-m reflector +
   10K CCD.
(H01) Magdalena Ridge Observatory, Socorro  (N33.984833 W107.189333)  US/New
   Mexico.  Observers W. H. Ryan, E. V. Ryan. Measurer W. H. Ryan. 2.4-m
   f/8.9 reflector + CCD.
(I52) Steward Observatory, Mt. Lemmon Station  (N32.442547 W110.788920)
   US/Arizona.  Observers T. A. Pruyne, B. M. Africano, E. J. Christensen, G.
   A. Farneth, D. C. Fuls, A. R. Gibbs, A. D. Grauer, H. Groeller, J. A.
   Johnson, R. A. Kowalski, S. M. Larson, G. J. Leonard, R. L. Seaman, F. C.
   Shelly. 1.0-m reflector + CCD.
(L01) Višnjan Observatory, Tičan  (N45.290900 E13.749300)  Croatia.
   Observers K. Korlević, E. Pettarin. Measurer E. Pettarin. 1.0-m f/2.9
   reflector + CCD.

Orbital elements:  C0MVNR2
   Perihelion 2019 Jul 30.257832 +/- 0.395 TT =  6:11:16 (JD 2458694.757832)
Epoch 2019 May 17.0 TT = JDT 2458620.5   Earth MOID: 0.0199   Ve: 0.0121
M 254.09297829 +/- 0.54             Me: 0.0102                AutoNEOCP
n   1.42620674 +/- 0.000301         Peri.  297.06545 +/- 0.13
a   0.78165370 +/- 0.00011          Node    94.59740 +/- 0.10
e   0.6110890 +/- 0.00483           Incl.    2.22205 +/- 0.024
P   0.69/252.41d           H 24.1   G  0.15   U  7.5  
q 0.30399366 +/- 0.00381    Q 1.25931374 +/- 0.00364
From 22 observations 2019 May 15-17 (46.5 hr); mean residual 0".53
Residuals in arcseconds: 
190515 G96  .34+  .22+    190515 I52  .13-  .13-    190516 L01  .26-  .68-    
190515 G96  .13-  .11+    190515 I52  .04-  .38-    190516 L01  .19-  .52-    
190515 G96  .25-  .22+    190515 I52  .27+  .01+    190517 G96  .13-  1.0+    
190515 H01  .08+  .10+    190516 G96  1.8+  .97-    190517 G96  .03+  .42+    
190515 H01  .05+  .14+    190516 G96  .18-  1.4+    190517 G96  .23+  .18+    
190515 H01  .19+  .16+    190516 G96  .00   .29-    190517 G96  .68+  .31-    
190515 H01  .03+  .06+    190516 G96  1.6-  .23-    
190515 I52  .29-  .12-    190516 L01  .23-  .19+    

Ephemerides (geocentric):
Date (UTC) HH   RA              Dec         delta   r     elong  mag " sig PA
---- -- -- --  -------------   -----------  ------ ------ -----  --- ---- ---
2019 05 21 08  15 16 14.329   +04 01 01.16  .06654 1.0725 154.5 19.5 1.15  54
2019 05 21 09  15 15 17.956   +04 08 22.54  .06633 1.0722 154.3 19.5 1.16  53
2019 05 21 10  15 14 21.206   +04 15 46.38  .06612 1.0719 154.1 19.5 1.17  51
2019 05 21 11  15 13 24.078   +04 23 12.70  .06591 1.0716 153.8 19.5 1.19  49
2019 05 21 12  15 12 26.570   +04 30 41.47  .06570 1.0713 153.6 19.5 1.20  48
2019 05 21 13  15 11 28.681   +04 38 12.70  .06549 1.0710 153.4 19.5 1.22  46
2019 05 21 14  15 10 30.409   +04 45 46.37  .06529 1.0707 153.2 19.5 1.23  45
2019 05 21 15  15 09 31.752   +04 53 22.48  .06509 1.0704 152.9 19.5 1.25  43
2019 05 21 16  15 08 32.710   +05 01 01.01  .06488 1.0702 152.7 19.5 1.27  42
2019 05 21 17  15 07 33.279   +05 08 41.96  .06468 1.0699 152.5 19.5 1.29  40
2019 05 21 18  15 06 33.460   +05 16 25.30  .06449 1.0696 152.2 19.5 1.31  38
2019 05 21 19  15 05 33.250   +05 24 11.04  .06429 1.0693 152.0 19.5 1.33  37
2019 05 21 20  15 04 32.648   +05 31 59.15  .06409 1.0690 151.7 19.5 1.35  35
2019 05 21 21  15 03 31.653   +05 39 49.62  .06390 1.0687 151.5 19.5 1.37  34
2019 05 21 22  15 02 30.263   +05 47 42.44  .06371 1.0684 151.2 19.5 1.39  32
2019 05 21 23  15 01 28.477   +05 55 37.59  .06352 1.0681 151.0 19.5 1.42  31
2019 05 22 00  15 00 26.295   +06 03 35.05  .06333 1.0678 150.7 19.5 1.44  29
2019 05 22 01  14 59 23.714   +06 11 34.81  .06314 1.0675 150.5 19.5 1.47  28
2019 05 22 02  14 58 20.733   +06 19 36.84  .06296 1.0673 150.2 19.5 1.50  26
2019 05 22 03  14 57 17.352   +06 27 41.12  .06277 1.0670 149.9 19.5 1.53  25
2019 05 22 04  14 56 13.570   +06 35 47.64  .06259 1.0667 149.7 19.5 1.56  24
2019 05 22 05  14 55 09.386   +06 43 56.37  .06241 1.0664 149.4 19.5 1.59  22
2019 05 22 06  14 54 04.798   +06 52 07.29  .06223 1.0661 149.1 19.5 1.62  21
2019 05 22 07  14 52 59.806   +07 00 20.37  .06205 1.0658 148.9 19.5 1.66  20
2019 05 22 08  14 51 54.409   +07 08 35.58  .06188 1.0655 148.6 19.5 1.69  18
2019 05 22 09  14 50 48.607   +07 16 52.91  .06170 1.0652 148.3 19.5 1.73  17
2019 05 22 10  14 49 42.398   +07 25 12.33  .06153 1.0649 148.0 19.5 1.76  16
2019 05 22 11  14 48 35.783   +07 33 33.80  .06136 1.0646 147.7 19.5 1.80  14
2019 05 22 12  14 47 28.761   +07 41 57.29  .06120 1.0643 147.4 19.5 1.84  13
2019 05 22 13  14 46 21.330   +07 50 22.78  .06103 1.0640 147.2 19.5 1.88  12
2019 05 22 14  14 45 13.492   +07 58 50.23  .06087 1.0637 146.9 19.5 1.92  11
2019 05 22 15  14 44 05.245   +08 07 19.60  .06070 1.0635 146.6 19.5 1.97  10
2019 05 22 16  14 42 56.590   +08 15 50.88  .06054 1.0632 146.3 19.5 2.01   8
2019 05 22 17  14 41 47.526   +08 24 24.01  .06038 1.0629 146.0 19.5 2.06   7
2019 05 22 18  14 40 38.053   +08 32 58.96  .06023 1.0626 145.7 19.5 2.10   6
2019 05 22 19  14 39 28.172   +08 41 35.70  .06007 1.0623 145.4 19.5 2.15   5
2019 05 22 20  14 38 17.882   +08 50 14.18  .05992 1.0620 145.0 19.5 2.20   4
2019 05 22 21  14 37 07.183   +08 58 54.36  .05977 1.0617 144.7 19.5 2.25   3
2019 05 22 22  14 35 56.077   +09 07 36.21  .05962 1.0614 144.4 19.6 2.30   2
2019 05 22 23  14 34 44.562   +09 16 19.67  .05947 1.0611 144.1 19.6 2.35   1
2019 05 23 00  14 33 32.641   +09 25 04.71  .05933 1.0608 143.8 19.6 2.40   0
2019 05 23 01  14 32 20.313   +09 33 51.28  .05918 1.0605 143.5 19.6 2.46 179
2019 05 23 02  14 31 07.578   +09 42 39.34  .05904 1.0602 143.2 19.6 2.51 178
2019 05 23 03  14 29 54.439   +09 51 28.83  .05890 1.0599 142.8 19.6 2.57 177
2019 05 23 04  14 28 40.895   +10 00 19.70  .05877 1.0596 142.5 19.6 2.63 177
2019 05 23 05  14 27 26.948   +10 09 11.91  .05863 1.0593 142.2 19.6 2.69 176
2019 05 23 06  14 26 12.598   +10 18 05.41  .05850 1.0590 141.9 19.6 2.75 175
2019 05 23 07  14 24 57.847   +10 27 00.14  .05837 1.0587 141.5 19.6 2.81 174